Paganella, Italy

5:35 AM CEST on August 21, 2017 (GMT +0200)
Paganella

Weather History for LIVP - January, 2013

Change the Weather History Date:

Sunday, January 13, 2013

  Actual Average Record
Temperature  
Mean Temperature 18 °F -  
Max Temperature 22 °F 28 °F 46 °F (2007)
Min Temperature 15 °F 19 °F 6 °F (2017)
Degree Days  
Heating Degree Days 46    
Moisture  
Dew Point 19 °F    
Average Humidity 97    
Maximum Humidity 100    
Minimum Humidity 84    
Precipitation  
Precipitation 0.00 in 0.04 in - ()
Sea Level Pressure  
Sea Level Pressure 29.64 in    
Wind  
Wind Speed 10 mph ()    
Max Wind Speed 17 mph    
Max Gust Speed -    
Visibility 1.1 miles    
Events Fog , Snow    
Averages and records for this station are not official NWS values.
T = Trace of Precipitation, MM = Missing Value Source: Averaged Metar Reports

Daily Weather History Graph

Daily Weather History Graph

Search for Another Location

Airport or City:

Trip Planner

Search our weather history database for the weather conditions in past years. The results will help you decide how hot, cold, wet, or windy it might be!

Date:

Astronomy

Jan. 13, 2013 Rise Set
Actual Time 7:55 AM CET 4:54 PM CET
Civil Twilight 7:21 AM CET 5:27 PM CET
Nautical Twilight 6:44 AM CET 6:05 PM CET
Astronomical Twilight 6:08 AM CET 6:41 PM CET
Moon 8:35 AM CET (1/13) 7:23 PM CET (1/13)
Length of Visible Light 10h 06m
Length of Day
8h 58m
Waxing Crescent, 4% of the Moon is Illuminated
Jan 13
Waxing Crescent
Jan 19
First Quarter
Jan 27
Full
Feb 3
Last Quarter
Feb 10
New

Hourly Weather History & Observations

Time (CET) Temp. Windchill Dew Point Humidity Pressure Visibility Wind Dir Wind Speed Gust Speed Precip Events Conditions
12:55 AM 17.6 °F 4.3 °F 15.8 °F 93% 29.71 in 6.2 mi SW 12.7 mph - N/A   Partly Cloudy
1:00 AM 18 °F - 15 °F 84%  in 12 mi SW 12.7 mph - -   Scattered Clouds
1:55 AM 17.6 °F 5.0 °F 14.0 °F 86% 29.71 in 6.2 mi SW 11.5 mph - N/A   Partly Cloudy
2:55 AM 17.6 °F 2.2 °F 15.8 °F 93% 29.71 in 0.2 mi SW 17.3 mph - N/A Fog Light Freezing Fog
3:55 AM 15.8 °F -0.2 °F 15.8 °F 100% 29.71 in 0.2 mi SW 17.3 mph - N/A Fog Light Freezing Fog
4:00 AM 17 °F - 17 °F 97%  in 0 mi SW 17.3 mph - - Fog Heavy Fog
4:55 AM 17.6 °F 2.7 °F 17.6 °F 100% 29.71 in 0.0 mi SW 16.1 mph - N/A Fog Light Freezing Fog
5:55 AM 17.6 °F 4.3 °F 17.6 °F 100% 29.68 in 0.0 mi SSW 12.7 mph - N/A Fog Light Freezing Fog
6:55 AM 19.4 °F 11.5 °F 19.4 °F 100% 29.65 in 0.0 mi South 5.8 mph - N/A Fog Light Freezing Fog
7:55 AM 19.4 °F 11.5 °F 19.4 °F 100% 29.65 in - SSE 5.8 mph - N/A Fog Light Freezing Fog
8:55 AM 19.4 °F 10.4 °F 19.4 °F 100% 29.65 in - SSE 6.9 mph - N/A Fog Light Freezing Fog
9:55 AM 19.4 °F 10.4 °F 19.4 °F 100% 29.65 in - South 6.9 mph - N/A Fog Light Freezing Fog
10:00 AM 20 °F - 20 °F 99%  in 0 mi South 6.9 mph - - Snow Light Snow
10:55 AM 19.4 °F 9.5 °F 19.4 °F 100% 29.65 in - South 8.1 mph - N/A Fog Light Freezing Fog
11:55 AM 21.2 °F 9.5 °F 21.2 °F 100% 29.65 in - SSW 11.5 mph - N/A Fog Light Freezing Fog
12:55 PM 21.2 °F 11.7 °F 21.2 °F 100% 29.65 in - South 8.1 mph - N/A Fog Light Freezing Fog
1:00 PM 21 °F - 21 °F 98%  in 0 mi South 8.1 mph - - Snow Light Snow
1:55 PM 21.2 °F 12.6 °F 21.2 °F 100% 29.62 in - South 6.9 mph - N/A Fog Light Freezing Fog
2:55 PM 21.2 °F 12.6 °F 19.4 °F 93% 29.62 in 0.1 mi SSW 6.9 mph - N/A Fog Light Freezing Fog
3:55 PM 21.2 °F 16.4 °F 19.4 °F 93% 29.59 in 0.1 mi SW 3.5 mph - N/A Fog Light Freezing Fog
4:00 PM 22 °F - 20 °F 88%  in 0 mi SW 3.5 mph - - Fog Heavy Fog
4:55 PM 21.2 °F - 19.4 °F 93% 29.62 in 0.1 mi Variable 2.3 mph - N/A Fog Light Freezing Fog
5:55 PM 21.2 °F 11.7 °F 21.2 °F 100% 29.62 in 0.0 mi SSE 8.1 mph - N/A Fog Light Freezing Fog
6:55 PM 21.2 °F 10.1 °F 21.2 °F 100% 29.59 in 0.4 mi ESE 10.4 mph - N/A Fog Light Freezing Fog
7:00 PM 20 °F - 20 °F 100%  in 0 mi ESE 10.4 mph - - Fog Heavy Fog
7:55 PM 21.2 °F 13.6 °F 19.4 °F 93% 29.59 in 0.6 mi NE 5.8 mph - N/A Fog Light Freezing Fog
8:55 PM 19.4 °F 9.5 °F 19.4 °F 100% 29.59 in 0.0 mi North 8.1 mph - N/A Fog Light Freezing Fog
9:55 PM 19.4 °F 7.2 °F 19.4 °F 100% 29.56 in 0.0 mi North 11.5 mph - N/A Fog Light Freezing Fog
10:00 PM 19 °F - 19 °F 99%  in 0 mi North 11.5 mph - - Fog Heavy Fog
10:55 PM 19.4 °F 6.0 °F 19.4 °F 100% 29.56 in 0.0 mi North 13.8 mph - N/A Fog Light Freezing Fog
11:55 PM 19.4 °F 4.5 °F 19.4 °F 100% 29.56 in 0.0 mi North 17.3 mph - N/A Fog Light Freezing Fog